Location: Roland
(31.1349°N, 85.4372°W)
Time: 19:29:39
(UTC+00:00)

SR - Pass Details

Date: 18 April 2021
Orbit: 573 x 882 km, 66.7° (Epoch: 13 May)

Event Time Altitude Azimuth Distance (km) Brightness Sun altitude
Rises 23:33:07 0° 323° (NW) 3,412 ? 7.4°
Reaches altitude 10° 23:35:52 10° 315° (NW) 2,436 ? 6.8°
Maximum altitude 23:40:49 33° 253° (WSW) 1,301 ? 5.8°
Drops below altitude 10° 23:45:27 10° 190° (S) 2,253 ? 4.8°
Sets 23:47:54 0° 180° (S) 3,119 ? 4.3°
